Find Starlink 37394

NORAD ID: 100475 Int'l Des: 2026-196 Owner: SPXS Country: US Constellation: starlink operational

当前视图

正在加载3D地球...

About Starlink 37394

Starlink 37394 (NORAD 100475) is a starlink constellation satellite launched Aug 25, 2026 by SPXS of US. with a mass of 575.00 kg.

即将过境

Passes for default location (London). Set your location on the main map for personalized predictions.

高度历史

Loading altitude history...

两行轨道根数

1 A0475U 26196C 26259.24348363 -.00971529 00000-0 -11589-1 0 9997
2 A0475 53.1596 262.9662 0000460 276.0650 84.0313 15.63072204 4683
Epoch: Sep 16, 2026 • Age: 104 hours

当前状态

高度 418.5 km
远地点 / 近地点 N/A
速度 7.66 km/s
星下点 -49.44°S, 87.16°W
发射日期 Aug 25, 2026
运行时间 26 days
类型 internet

技术详情

分类 Payload
质量 575.00 kg
干质量 530.00 kg
长度 0.30 m
跨度 29.00 m
形状 ? Box + pan
制造商 SPXS
平台类型 Starlink V2MO
阶段状态 In Orbit
所有者/国家 SPXS/US

Most Searched